STARLINK-1502, 45764

Orbit data source: Space-Track

STARLINK-1502, 45764 is a payload satellite owned by SpaceX/Seattle (US) in LEO that was launched on Sat, 13 Jun 2020 UTC via an FALCON 9 launch vehicle from the Air Force Eastern Test Range (AFETR). Payload-class satellites include a variety of spacecraft equipped with specific instruments for various scientific and technological missions. These include communications satellites like Starlink; space stations such as the ISS; scientific satellites like the Hubble; Earth observation satellites from companies like Planet Labs, Umbra, and HawkEye 360; GPS; miniature CubeSats for education and research; and military/defense satellites.

Loading next visibility...
Identifier
45764, 2020-038AL
Orbit
LEO
Country
Flag of USUS
Related business
Manufacturer
SpaceX/Seattle
Mission
Operational Commercial Communications
Bus & Motor
STARLINK, Unknown motor
Mass
260 kg wet, ~248 kg dry
Launch date (UTC)
2020-06-13 (5 years ago)
Launch vehicle
FALCON 9
Launch site
Air Force Eastern Test Range (AFETR)
Object type
Payload
Rocket body
Debris
Shape & HBR
Box + 1 Pan, 4.4 m
Radar Cross Section
13.562 m², Large (>1 m²)

Expand to show TLE details & history
Last TLE update: 2 days ago

TLE from 2 days ago
0 STARLINK-1502
1 45764U 20038AL  25259.46045631  .00001181  00000-0  98147-4 0  9995
2 45764  53.0539 278.7636 0001133  83.8207 276.2911 15.06398505290223
Epoch: 2025-09-16T11:03Z
TLE epoch observation values (Epoch: 2025-09-16T11:03:03.425Z)
Latitude
-0.00001°
Longitude
117.34889°
Altitude
548.009 km
Speed
7.589 km/s
True Right ascension
18h 35m 03s
True Declination
0° 00' 00"
Sunlit
Object was in daylight at epoch
Visualization orbit readout
Latitude
Unknown
Longitude
Unknown
Altitude
Unknown
Speed
Unknown
Apparent Right ascension
Unknown
Apparent Declination
Unknown
Sunlit
N/A
Visualization observer readout
Local Sidereal Time
19:15:11
Azimuth
Unknown
Elevation
Unknown
Doppler factor
Unknown
Orbital elements
Apogee altitude
548.272 km
Perigee altitude
546.702 km
Semi-major axis
6,925.624 km
Eccentricity
0.00011
Inclination
53.0539°
RAAN
278.7636°
Arg. of periapsis
83.8207°
True anomaly
276.27819°
Mean anomaly
276.2911°
Eccentric anomaly
276.28465°
Mean motion
3.76578 °/min
Orbital period
95.6 mins
BSTAR
0.000098147
Loading maneuver chart data...
Computing Atmospheric mass density...

Documentation

Showing up to 5 results
|